• In Germany
  • List of Countries
  • For 7 days
  • Water Temperature
  • Satellite Maps
  • Weather Map
  • Weather Widgets
  • user-avatar
    Login

    Hourly Weather Solden

    Today, 30 May, Tuesday

    Time Temperature Precipitation Wind Pressure Humidity
    00:00 +6°C° 0.3 mm 1 mps 583 mmHg 95%
    01:00 +5°C° 0.3 mm 1 mps 583 mmHg 95%
    02:00 +5°C° 0.1 mm 1 mps 583 mmHg 95%
    03:00 +5°C° 0.1 mm 1 mps 582 mmHg 94%
    04:00 +4°C° 0.1 mm 1 mps 582 mmHg 94%
    05:00 +6°C° 0 mm 1 mps 583 mmHg 89%
    06:00 +8°C° 0 mm 0 mps 584 mmHg 85%
    07:00 +10°C° 0 mm 0 mps 586 mmHg 80%
    08:00 +11°C° 0.1 mm 0 mps 587 mmHg 73%
    09:00 +14°C° 0.1 mm 1 mps 587 mmHg 65%
    10:00 +16°C° 0.1 mm 1 mps 588 mmHg 58%
    11:00 +16°C° 0.4 mm 1 mps 588 mmHg 58%
    12:00 +16°C° 0.4 mm 1 mps 588 mmHg 58%
    13:00 +17°C° 0.4 mm 2 mps 588 mmHg 58%
    14:00 +16°C° 0.7 mm 2 mps 588 mmHg 61%
    15:00 +16°C° 0.7 mm 2 mps 588 mmHg 64%
    16:00 +15°C° 0.7 mm 2 mps 587 mmHg 67%
    17:00 +14°C° 0.6 mm 1 mps 587 mmHg 75%
    18:00 +13°C° 0.6 mm 1 mps 587 mmHg 82%
    19:00 +11°C° 0.6 mm 1 mps 586 mmHg 89%
    20:00 +9°C° 0.6 mm 1 mps 586 mmHg 92%
    21:00 +8°C° 0.6 mm 1 mps 585 mmHg 94%
    22:00 +5°C° 0.6 mm 0 mps 584 mmHg 97%
    23:00 +6°C° 0.3 mm 1 mps 585 mmHg 97%

    Tomorrow, 31 May, Wednesday

    Time Temperature Precipitation Wind Pressure Humidity
    00:00 +6°C° 0.3 mm 1 mps 585 mmHg 97%
    01:00 +6°C° 0.3 mm 1 mps 585 mmHg 96%
    02:00 +5°C° 0.1 mm 1 mps 584 mmHg 96%
    03:00 +5°C° 0.1 mm 1 mps 584 mmHg 96%
    04:00 +5°C° 0.1 mm 1 mps 584 mmHg 96%
    05:00 +6°C° 0 mm 1 mps 585 mmHg 92%
    06:00 +7°C° 0 mm 0 mps 586 mmHg 89%
    07:00 +9°C° 0 mm 0 mps 587 mmHg 85%
    08:00 +11°C° 0.1 mm 0 mps 588 mmHg 77%
    09:00 +13°C° 0.1 mm 1 mps 589 mmHg 69%
    10:00 +15°C° 0.1 mm 1 mps 589 mmHg 62%
    11:00 +15°C° 0.2 mm 1 mps 590 mmHg 60%
    12:00 +16°C° 0.2 mm 1 mps 590 mmHg 58%
    13:00 +16°C° 0.2 mm 2 mps 590 mmHg 57%
    14:00 +16°C° 0.4 mm 2 mps 589 mmHg 59%
    15:00 +15°C° 0.4 mm 2 mps 589 mmHg 62%
    16:00 +15°C° 0.4 mm 2 mps 589 mmHg 64%
    17:00 +14°C° 0.5 mm 1 mps 588 mmHg 71%
    18:00 +12°C° 0.5 mm 1 mps 588 mmHg 78%
    19:00 +11°C° 0.5 mm 1 mps 587 mmHg 85%
    20:00 +9°C° 0.4 mm 1 mps 586 mmHg 89%
    21:00 +6°C° 0.4 mm 0 mps 586 mmHg 92%
    22:00 +5°C° 0.4 mm 0 mps 585 mmHg 96%
    23:00 +4°C° 0.1 mm 0 mps 585 mmHg 96%

    Day after tomorrow, 1 June, Thursday

    Time Temperature Precipitation Wind Pressure Humidity
    00:00 +4°C° 0.1 mm 0 mps 585 mmHg 96%
    01:00 +4°C° 0.1 mm 0 mps 584 mmHg 97%
    02:00 +3°C° 0 mm 0 mps 584 mmHg 97%
    03:00 +3°C° 0 mm 0 mps 584 mmHg 97%
    04:00 +3°C° 0 mm 0 mps 584 mmHg 97%
    05:00 +5°C° 0 mm 0 mps 585 mmHg 92%
    06:00 +7°C° 0 mm 0 mps 586 mmHg 88%
    07:00 +9°C° 0 mm 0 mps 587 mmHg 83%
    08:00 +10°C° 0.1 mm 0 mps 588 mmHg 75%
    09:00 +13°C° 0.1 mm 1 mps 589 mmHg 66%
    10:00 +14°C° 0.1 mm 1 mps 590 mmHg 57%
    11:00 +15°C° 0.2 mm 1 mps 590 mmHg 56%
    12:00 +15°C° 0.2 mm 1 mps 590 mmHg 55%
    13:00 +16°C° 0.2 mm 2 mps 590 mmHg 54%
    14:00 +15°C° 0.5 mm 2 mps 590 mmHg 57%
    15:00 +15°C° 0.5 mm 2 mps 589 mmHg 61%
    16:00 +14°C° 0.5 mm 2 mps 589 mmHg 64%
    17:00 +13°C° 0.5 mm 1 mps 588 mmHg 72%
    18:00 +12°C° 0.5 mm 1 mps 588 mmHg 79%
    19:00 +11°C° 0.5 mm 1 mps 587 mmHg 86%
    20:00 +9°C° 0.3 mm 1 mps 586 mmHg 89%
    21:00 +7°C° 0.3 mm 1 mps 585 mmHg 93%
    22:00 +4°C° 0.3 mm 0 mps 585 mmHg 96%
    23:00 +4°C° 0 mm 1 mps 585 mmHg 96%

    2 June, Friday

    Time Temperature Precipitation Wind Pressure Humidity
    00:00 +4°C° 0 mm 1 mps 584 mmHg 96%
    01:00 +4°C° 0 mm 1 mps 584 mmHg 96%
    02:00 +4°C° 0 mm 1 mps 584 mmHg 96%
    03:00 +4°C° 0 mm 1 mps 584 mmHg 96%
    04:00 +3°C° 0 mm 1 mps 584 mmHg 96%
    05:00 +5°C° 0 mm 1 mps 585 mmHg 90%
    06:00 +7°C° 0 mm 1 mps 586 mmHg 85%
    07:00 +9°C° 0 mm 1 mps 587 mmHg 80%
    08:00 +11°C° 0 mm 1 mps 588 mmHg 70%
    09:00 +13°C° 0 mm 1 mps 588 mmHg 60%
    10:00 +14°C° 0 mm 1 mps 589 mmHg 50%
    11:00 +15°C° 0.2 mm 1 mps 589 mmHg 50%
    12:00 +15°C° 0.2 mm 2 mps 589 mmHg 50%
    13:00 +16°C° 0.2 mm 2 mps 589 mmHg 50%
    14:00 +16°C° 0.6 mm 2 mps 589 mmHg 54%
    15:00 +15°C° 0.6 mm 2 mps 588 mmHg 58%
    16:00 +15°C° 0.6 mm 1 mps 588 mmHg 62%
    17:00 +13°C° 0.5 mm 1 mps 587 mmHg 70%
    18:00 +12°C° 0.5 mm 1 mps 587 mmHg 78%
    19:00 +11°C° 0.5 mm 1 mps 586 mmHg 86%
    20:00 +7°C° 0.2 mm 0 mps 585 mmHg 89%
    21:00 +5°C° 0.2 mm 0 mps 584 mmHg 93%
    22:00 +3°C° 0.2 mm 0 mps 583 mmHg 96%
    23:00 +3°C° 0 mm 0 mps 583 mmHg 96%

    3 June, Saturday

    Time Temperature Precipitation Wind Pressure Humidity
    00:00 +4°C° 0 mm 1 mps 583 mmHg 96%
    01:00 +4°C° 0 mm 1 mps 583 mmHg 96%
    02:00 +3°C° 0 mm 1 mps 583 mmHg 96%
    03:00 +3°C° 0 mm 1 mps 583 mmHg 96%
    04:00 +3°C° 0 mm 1 mps 582 mmHg 96%
    05:00 +4°C° 0 mm 0 mps 584 mmHg 90%
    06:00 +7°C° 0 mm 0 mps 585 mmHg 85%
    07:00 +9°C° 0 mm 0 mps 586 mmHg 79%
    08:00 +11°C° 0 mm 0 mps 587 mmHg 70%
    09:00 +13°C° 0 mm 0 mps 588 mmHg 61%
    10:00 +16°C° 0 mm 1 mps 589 mmHg 52%
    11:00 +16°C° 0.2 mm 1 mps 589 mmHg 51%
    12:00 +16°C° 0.2 mm 1 mps 589 mmHg 50%
    13:00 +18°C° 0.2 mm 1 mps 589 mmHg 50%
    14:00 +16°C° 0.4 mm 1 mps 588 mmHg 54%
    15:00 +16°C° 0.4 mm 1 mps 588 mmHg 57%
    16:00 +15°C° 0.4 mm 1 mps 588 mmHg 61%
    17:00 +14°C° 0.3 mm 1 mps 587 mmHg 70%
    18:00 +13°C° 0.3 mm 1 mps 586 mmHg 78%
    19:00 +12°C° 0.3 mm 1 mps 586 mmHg 86%
    20:00 +9°C° 0.2 mm 0 mps 585 mmHg 89%
    21:00 +7°C° 0.2 mm 0 mps 585 mmHg 92%
    22:00 +5°C° 0.2 mm 0 mps 584 mmHg 96%
    23:00 +5°C° 0 mm 0 mps 584 mmHg 96%

    4 June, Sunday

    Time Temperature Precipitation Wind Pressure Humidity
    00:00 +4°C° 0 mm 0 mps 583 mmHg 97%
    01:00 +4°C° 0 mm 0 mps 583 mmHg 97%
    02:00 +4°C° 0 mm 0 mps 583 mmHg 97%
    03:00 +4°C° 0 mm 0 mps 583 mmHg 97%
    04:00 +3°C° 0 mm 0 mps 583 mmHg 97%
    05:00 +5°C° 0 mm 0 mps 584 mmHg 92%
    06:00 +8°C° 0 mm 0 mps 585 mmHg 88%
    07:00 +10°C° 0 mm 0 mps 587 mmHg 84%
    08:00 +12°C° 0.1 mm 1 mps 587 mmHg 77%
    09:00 +13°C° 0.1 mm 1 mps 588 mmHg 71%
    10:00 +15°C° 0.1 mm 1 mps 589 mmHg 64%
    11:00 +15°C° 0.5 mm 1 mps 589 mmHg 64%
    12:00 +15°C° 0.5 mm 1 mps 589 mmHg 65%
    13:00 +15°C° 0.5 mm 1 mps 589 mmHg 65%
    14:00 +15°C° 0.9 mm 1 mps 588 mmHg 69%
    15:00 +14°C° 0.9 mm 1 mps 588 mmHg 72%
    16:00 +14°C° 0.9 mm 1 mps 587 mmHg 75%
    17:00 +13°C° 1 mm 1 mps 587 mmHg 81%
    18:00 +12°C° 1 mm 1 mps 587 mmHg 86%
    19:00 +11°C° 1 mm 1 mps 586 mmHg 92%
    20:00 +8°C° 0.9 mm 0 mps 586 mmHg 93%
    21:00 +7°C° 0.9 mm 0 mps 585 mmHg 95%
    22:00 +6°C° 0.9 mm 0 mps 585 mmHg 96%
    23:00 +6°C° 0.7 mm 0 mps 585 mmHg 96%
    Show more